Cloud_Cover
0 0 0 5 5 5 67 13 73 58 38 96 24 93 7 0 0 0 0 0 0 0 0 9 6 79 2 0 5 3 4 23
0 0 0 0 30 3 5 43 12 91 52 69 34 89 0 1 0 0 0 0 0 0 0 2 5 5 5 2 77 6 4 15
0 0 0 0 0 0 38 99 100 81 70 100 94 2 0 5 1 1 0 0 0 0 0 0 0 0 0 0 1 3 10 16
0 0 0 0 0 0 5 1 0 26 12 15 40 1 0 34 5 0 8 52 2 0 0 0 0 0 0 0 0 6 16 6
0 0 0 0 0 5 5 94 92 90 100 81 89 1 0 3 87 5 33 94 54 11 0 0 0 0 0 3 7 2 0 0
0 0 0 0 0 3 19 100 100 100 12 54 9 85 3 0 3 5 5 0 2 5 2 0 0 4 5 2 0 0 0 0
0 0 0 0 0 0 0 5 74 100 99 100 62 27 98 0 0 0 0 0 0 0 0 0 7 6 2 0 0 0 0 0
0 0 0 0 0 0 0 2 5 5 24 57 60 6 0 0 0 0 0 0 0 0 0 0 0 0 0 0 0 0 0 2
0 0 0 0 0 0 0 5 78 8 46 5 5 19 86 3 0 0 0 0 0 0 0 0 0 0 0 0 0 0 9 17
1 3 1 0 0 0 0 2 4 5 3 3 3 33 11 0 0 0 0 0 3 3 0 0 0 0 0 0 0 5 12 13
5 65 10 0 1 1 0 17 1 5 5 0 0 0 0 0 0 0 0 3 5 5 0 23 0 0 0 0 0 1 2 66
0 82 96 8 18 2 5 5 86 4 2 0 0 0 9 0 0 2 3 4 5 5 24 31 5 0 0 0 0 1 5 100
52 100 51 50 47 14 0 6 4 0 0 0 0 0 1 0 0 0 0 0 5 33 47 40 21 4 7 2 1 78 98 100
4 37 90 39 73 92 77 2 2 1 0 0 0 0 0 0 0 0 0 0 0 70 100 66 24 17 15 54 98 100 100 100
95 43 0 8 99 100 10 0 0 0 0 5 4 0 0 0 0 0 0 3 52 100 100 93 6 21 85 72 84 94 100 100
100 22 20 100 100 100 10 0 0 0 0 5 5 5 1 0 0 0 1 71 99 100 100 100 100 100 96 81 100 100 100 100
100 59 80 100 76 100 78 0 2 0 0 0 4 5 5 5 5 5 13 77 100 100 100 100 100 100 100 100 100 100 100 100
100 34 1 11 20 2 0 0 0 5 4 2 5 0 5 5 5 0 87 100 100 90 64 97 100 100 100 100 100 100 100 100
3 0 0 0 0 0 0 0 0 0 0 0 5 22 5 5 5 44 16 41 73 99 100 100 100 100 100 100 100 100 100 100